Flag for U.S.A. Weather past 2 weeks in Petersburg, Indiana, U.S.A.

Now
75 °F

Cloudy.


Feels Like: 75 °F
Forecast: 64 / 75 °F
Wind: No wind

Location: Huntingburg Airport

Current Time: Jul 7, 2015 at 8:45:36 PM

Latest Report: Jul 7, 2015 at 8:15 PM


Visibility: 9 mi

Pressure: 29.98 "Hg

Humidity: 89%

Dew point: 72 °F

Location of PetersburgLocation

Historic Weather in Petersburg — Graph

°F

Petersburg temperature yesterday

Maximum temperature yesterday: 84 °F (at 1:35 PM)
Minimum temperature yesterday: 66 °F (at 3:35 AM)
Average temperature yesterday: 76 °F

Past Weeks' High & Low Weather Summary

 TemperatureHumidityPressure
High88 °F (Jun 23, 1:35 PM)94% (Jun 24, 6:15 AM)30.19 "Hg (Jun 24, 6:15 AM)
Low54 °F (Jun 28, 6:35 AM)42% (Jun 28, 12:35 PM)29.79 "Hg (Jun 29, 6:15 AM)
Average74 °F79%29.96 "Hg
* Reported Jun 22 7:15 PM — Jul 7 7:35 PM, Petersburg, Weather by CustomWeather, © 2015

Note: Actual official high and low records may vary slightly from our data, if they occured in-between our weather recording intervals... More about our weather records

Advertising

Petersburg weather history for previous 24 hours

 ConditionsComfort  
Time TempWeatherWind HumidityBarometerVisibility
7:35 PM
Tue, Jul 7
75 °FBroken clouds.No wind83%29.98 "Hg10 mi
7:15 PM75 °FCloudy.No wind83%29.97 "Hg10 mi
6:55 PM75 °FMore clouds than sun.5 mph83%29.97 "Hg10 mi
6:35 PM75 °FBroken clouds.6 mph83%29.97 "Hg10 mi
5:35 PM73 °FBroken clouds.14 mph89%29.99 "Hg9 mi
4:55 PM75 °FMore clouds than sun.12 mph83%29.99 "Hg10 mi
4:35 PM75 °FMore clouds than sun.14 mph83%30.00 "Hg10 mi
4:15 PM75 °FMostly cloudy.15 mph89%29.99 "Hg10 mi
3:55 PM75 °FCloudy.13 mph89%29.99 "Hg10 mi
3:35 PM75 °FBroken clouds.12 mph89%29.99 "Hg10 mi
3:15 PM75 °FMostly cloudy.13 mph89%29.98 "Hg10 mi
2:55 PM75 °FMore clouds than sun.14 mph89%29.99 "Hg10 mi
2:35 PM75 °FMostly cloudy.13 mph89%29.98 "Hg10 mi
2:15 PM75 °FMostly cloudy.14 mph89%29.98 "Hg8 mi
1:35 PM77 °FCloudy.17 mph83%29.98 "Hg9 mi
1:15 PM77 °FBroken clouds.12 mph89%29.97 "Hg10 mi
12:55 PM75 °FMostly cloudy.12 mph89%29.97 "Hg10 mi
12:35 PM75 °FMostly cloudy.9 mph89%29.97 "Hg9 mi
12:15 PM75 °FLow clouds.9 mph89%29.97 "Hg10 mi
11:55 AM75 °FMore clouds than sun.7 mph83%29.98 "Hg9 mi
11:35 AM73 °FCloudy.8 mph89%29.98 "Hg10 mi
11:15 AM73 °FMostly cloudy.12 mph89%29.98 "Hg3 mi
10:55 AM73 °FMostly cloudy.8 mph89%29.98 "Hg10 mi
10:35 AM73 °FMostly cloudy.13 mph89%29.98 "Hg10 mi
10:15 AM73 °FMostly cloudy.13 mph89%29.98 "Hg3 mi
9:15 AM72 °FCloudy.12 mph88%29.98 "Hg4 mi
8:55 AM73 °FBroken clouds.17 mph89%29.98 "Hg5 mi
8:35 AM73 °FCloudy.18 mph89%29.97 "Hg3 mi
8:15 AM73 °FThundershowers. Cloudy.17 mph89%29.97 "Hg6 mi
7:55 AM73 °FMore clouds than sun.21 mph89%29.97 "Hg2 mi
7:35 AM75 °FCloudy.8 mph89%29.97 "Hg9 mi
7:15 AM75 °FThundershowers. Mostly cloudy.12 mph89%29.96 "Hg7 mi
6:55 AM73 °FMostly cloudy.5 mph94%29.97 "Hg7 mi
6:35 AM75 °FMostly cloudy.12 mph89%29.97 "Hg9 mi
6:15 AM75 °FOvercast.9 mph89%29.97 "Hg10 mi
5:55 AM75 °FMostly cloudy.12 mph89%29.96 "Hg10 mi
5:35 AM75 °FMostly cloudy.10 mph89%29.97 "Hg10 mi
5:15 AM75 °FPassing clouds.9 mph89%29.97 "Hg10 mi
4:55 AM75 °FPassing clouds.9 mph89%29.97 "Hg10 mi
4:35 AM75 °FClear.9 mph89%29.97 "Hg10 mi
4:15 AM75 °FClear.9 mph89%29.97 "Hg10 mi
3:55 AM75 °FPassing clouds.10 mph89%29.97 "Hg10 mi
3:35 AM75 °FPassing clouds.9 mph89%29.98 "Hg10 mi
3:15 AM75 °FClear.10 mph89%29.99 "Hg10 mi
2:55 AM75 °FClear.12 mph89%29.99 "Hg10 mi
2:35 AM75 °FPassing clouds.8 mph89%29.98 "Hg10 mi
2:15 AM75 °FPartly cloudy.7 mph89%29.99 "Hg10 mi
1:55 AM75 °FPassing clouds.7 mph89%29.99 "Hg10 mi
1:35 AM75 °FClear.8 mph89%29.99 "Hg10 mi
1:15 AM75 °FClear.8 mph89%29.99 "Hg10 mi
12:55 AM75 °FClear.8 mph89%29.99 "Hg10 mi
12:35 AM75 °FPassing clouds.7 mph89%29.99 "Hg10 mi
12:15 AM77 °FPassing clouds.9 mph83%30.00 "Hg10 mi
11:55 PM
Mon, Jul 6
77 °FClear.8 mph83%30.00 "Hg10 mi
11:15 PM77 °FClear.7 mph83%30.00 "Hg10 mi
10:55 PM77 °FClear.5 mph83%30.00 "Hg10 mi
10:35 PM77 °FPassing clouds.6 mph83%30.00 "Hg10 mi
10:15 PM79 °FPassing clouds.6 mph79%30.01 "Hg10 mi
9:55 PM79 °FPassing clouds.6 mph79%29.99 "Hg10 mi
9:35 PM79 °FSunny.6 mph79%29.98 "Hg10 mi
9:15 PM79 °FSunny.5 mph79%29.97 "Hg10 mi
8:55 PM81 °FSunny.6 mph74%29.98 "Hg10 mi
8:35 PM81 °FSunny.7 mph74%29.97 "Hg10 mi
8:15 PM82 °FSunny.6 mph70%29.97 "Hg10 mi
Weather by CustomWeather, © 2015

See weather overviewHow to use our weather pages